[[{"header":{"parameterUnit":"m.s-1","parameterCategory":1,"la1":30.2991,"la2":30.254,"lo1":-89.0895,"lo2":-89.0444,"dy":0.0017,"dx":0.0017,"nx":28,"ny":28,"refTime":"2023-04-12T21:00:00:Z","depth":0,"parameterNumber":2,"parameterNumberName":"U-component_of_WINDS"},"data":[0,0,0,0,0,0,0,0,0,0,0,0,0,0,0,0,0,0,0,0,0,0,0,0,0,0,0,0,0,0,0,0,0,0,0,0,0,0,0,0,0,0,0,0,0,0,0,0,0,0,0,0,0,0,0,0,0,0,6.9063,6.9064,0,6.9156,6.9157,6.9159,6.8987,6.8981,6.8975,6.897,6.9065,6.9073,6.9081,0,0,0,0,0,0,0,0,0,0,0,0,0,6.8735,6.8742,6.9063,6.9064,6.9065,6.9156,6.9158,6.9159,6.8988,6.8981,6.8974,6.8967,6.9063,6.9072,6.9081,0,0,0,0,0,0,0,0,0,0,0,0,0,6.8858,6.8744,6.9063,6.8991,6.8985,6.9156,6.9158,6.9159,6.8989,6.8981,6.8972,6.8964,6.906,6.9071,6.9083,6.9328,0,0,6.9119,6.9124,0,0,0,0,0,0,0,0,6.8851,6.887,6.9,6.8996,6.899,6.9051,6.9077,6.9216,6.8991,6.8988,6.897,6.896,6.9068,6.9078,6.9114,6.9332,6.9336,6.912,6.9127,6.9132,6.9135,0,0,0,0,0,0,0,6.8843,6.8865,6.91,6.9002,6.8996,6.8954,6.8962,6.9102,6.9075,6.8987,6.8975,6.8989,6.9063,6.9104,6.9115,6.9337,6.912,6.913,6.9137,6.9142,6.9757,6.9766,0,0,0,0,0,0,6.8844,6.8859,6.9097,6.9103,6.8898,6.8967,6.8975,6.904,6.9073,6.9069,6.8996,6.898,6.9088,6.9102,6.9118,6.9403,6.9132,6.9143,6.915,6.9748,6.9759,6.9769,0,0,0,0,0,0,6.8837,6.8866,6.9093,6.8978,6.9003,6.8981,6.9056,6.9047,6.9087,6.9079,6.9073,6.9042,6.9081,6.9102,6.9276,6.9404,6.9148,6.9159,6.9737,6.9751,6.9764,6.9978,0,0,0,0,0,0,6.8829,6.8865,6.8958,6.8981,6.901,6.925,6.9064,6.9055,6.9108,6.9088,6.9121,6.9118,6.9076,6.9259,6.9288,6.9416,6.9168,6.9725,6.9743,6.976,6.9959,6.9997,7.003,0,0,0,0,0,6.8817,6.9015,6.8964,6.8993,6.9126,6.9258,6.9274,6.9222,6.9119,6.9211,6.9206,6.9117,6.9387,6.9279,6.9309,6.9443,6.9717,6.9738,6.9758,6.9943,6.999,7.0029,0,0,0,0,0,0,6.9008,6.9017,6.896,6.9171,6.9215,6.9229,6.9344,6.9274,6.9348,6.9326,6.9259,6.9268,6.9455,6.9467,6.9346,6.968,6.9534,6.9562,6.9664,6.9708,6.9743,6.9734,6.9178,0,0,0,0,0,6.9075,6.9181,6.9184,6.937,6.9395,6.9367,6.9422,6.9378,6.9421,6.9438,6.9446,6.949,6.9584,6.9648,6.9735,6.9962,6.9964,7.0069,7.0104,7.0133,7.0157,7.0274,7.0319,6.9837,6.9837,6.9837,0,0,6.9213,6.9231,6.9303,6.9409,6.9437,6.9548,6.9383,6.9508,6.9589,6.9457,6.962,6.9629,6.9674,6.9875,6.9964,6.989,7.0291,7.016,7.0183,7.0191,7.03,7.0345,7.0386,6.9851,6.9849,6.9847,0,0,6.9521,6.9547,6.9703,6.9736,6.9781,6.9761,6.9799,6.9824,6.9824,6.9988,6.989,6.9986,7.0151,7.0185,7.0225,7.0547,7.0466,7.0578,7.0761,7.0876,7.0914,7.0947,7.1057,7.1099,7.0602,7.0603,7.0603,0,6.9686,6.985,6.9792,6.9923,6.9972,6.9859,7.0015,7.0049,7.0122,7.0157,7.0075,7.0277,7.03,7.0506,7.0584,7.0622,7.0661,7.0571,7.0913,7.0946,7.0976,7.108,7.1123,7.0616,7.0614,7.0613,7.0612,0,7.0049,7.0165,7.0285,7.0356,7.0419,7.0563,7.0526,7.0597,7.0548,7.0537,7.0704,7.0728,7.0815,7.0862,7.0817,7.1061,7.1014,7.0925,7.0775,7.1036,7.1132,7.1172,7.0634,7.0629,7.0626,7.0622,0,0,7.0476,7.0515,7.0559,7.0589,7.0632,7.0719,7.0858,7.0944,7.1003,7.1059,7.117,7.1313,7.1229,7.1274,7.1232,7.1334,7.1582,7.1231,7.123,7.1291,7.1848,7.1912,7.1959,7.1531,7.1539,7.1545,7.1843,0,7.0778,7.1015,7.0967,7.1199,7.1302,7.1197,7.1317,7.1356,7.135,7.1437,7.1429,7.1529,7.1414,7.144,7.1537,7.1532,7.1692,7.151,7.1631,7.1636,7.1618,7.2011,7.2079,7.2359,7.1881,7.1887,7.1892,0,7.116,7.1228,7.147,7.1494,7.1536,7.1645,7.1718,7.1804,7.1845,7.1833,7.1884,7.1822,7.1958,7.1812,7.1996,7.1873,7.1921,7.1926,7.1935,7.194,7.1776,7.2021,7.2447,7.2488,7.1952,7.1947,7.1943,0,7.1441,7.1594,7.1757,7.1787,7.182,7.1898,7.1916,7.195,7.2004,7.2069,7.2103,7.2184,7.2227,7.2291,7.2251,7.215,7.2442,7.2293,7.2432,7.2433,7.2494,7.249,7.2928,7.2534,7.2534,7.2533,7.2532,0,7.1779,7.193,7.1883,7.1983,7.2148,7.2094,7.2259,7.2264,7.2295,7.2393,7.2309,7.2403,7.2348,7.2437,7.2408,7.2563,7.2585,7.2576,7.2566,7.2581,7.2581,7.2607,7.2585,7.2544,7.2542,7.2539,7.2538,0,7.2119,7.2094,7.2264,7.2282,7.2291,7.2411,7.2426,7.2519,7.2507,7.2632,7.2659,7.264,7.274,7.2709,7.2818,7.2798,7.2993,7.296,7.2979,7.2968,7.3108,7.3093,7.3574,7.3632,7.3206,7.321,7.3213,0,7.2334,7.2447,7.2478,7.2537,7.2561,7.2659,7.2714,7.2665,7.2725,7.2781,7.2867,7.296,7.3031,7.3197,7.3192,7.3275,7.324,7.3403,7.3251,7.3262,7.3236,7.3227,7.3236,7.3431,7.3436,7.344,7.3443,0,7.2716,7.2698,7.278,7.2859,7.2926,7.2986,7.3037,7.3091,7.3045,7.3117,7.3219,7.3275,7.3386,7.3478,7.3553,7.357,7.3498,7.3492,7.3527,7.3541,7.3545,7.354,7.3055,7.348,7.3476,7.3473,7.3471,7.347,7.2996,7.3091,7.3126,7.322,7.3254,7.3304,7.3391,7.339,7.3475,7.356,7.3528,7.3644,7.3681,7.3774,7.3801,7.389,7.3827,7.3881,7.3893,7.3905,7.392,7.3536,7.3905,7.3904,7.3903,7.3902,7.3901,0,7.3369,7.3388,7.3475,7.3549,7.3623,7.3552,7.3606,7.3671,7.3775,7.3816,7.3888,7.4004,7.4094,7.4097,7.418,7.4251,7.422,7.4274,7.4265,7.4269,7.3975,7.3933,7.4297,7.4297,7.4297,7.4297,7.4297,7.4296,7.3572,7.3727,7.3714,7.3884,7.3901,7.4014,7.405,7.4095,7.4128,7.4261,7.4335,7.4337,7.4362,7.4447,7.4525,7.4523,7.4555,7.4621,7.4606,7.433,7.429,7.4253,7.4213,7.463,7.463,7.4892,7.4895,7.4897]},{"header":{"parameterUnit":"m.s-1","parameterCategory":1,"la1":30.2991,"la2":30.254,"lo1":-89.0895,"lo2":-89.0444,"dy":0.0017,"dx":0.0017,"nx":28,"ny":28,"refTime":"2023-04-12T21:00:00:Z","depth":0,"parameterNumber":3,"parameterNumberName":"V-component_of_WINDS"},"data":[0,0,0,0,0,0,0,0,0,0,0,0,0,0,0,0,0,0,0,0,0,0,0,0,0,0,0,0,0,0,0,0,0,0,0,0,0,0,0,0,0,0,0,0,0,0,0,0,0,0,0,0,0,0,0,0,0,0,5.6983,5.6986,0,5.7248,5.7251,5.7254,5.7393,5.7393,5.7393,5.7393,5.7659,5.7665,5.7672,0,0,0,0,0,0,0,0,0,0,0,0,0,5.6588,5.6594,5.6983,5.6986,5.6989,5.7248,5.7251,5.7255,5.7393,5.7393,5.7393,5.7393,5.7657,5.7665,5.7673,0,0,0,0,0,0,0,0,0,0,0,0,0,5.6796,5.6596,5.6982,5.7089,5.7102,5.7247,5.7251,5.7256,5.7393,5.7393,5.7393,5.7393,5.7654,5.7664,5.7674,5.7731,0,0,5.7705,5.771,0,0,0,0,0,0,0,0,5.6784,5.6811,5.707,5.7082,5.7096,5.7288,5.721,5.7415,5.7392,5.7282,5.7393,5.7394,5.7535,5.7555,5.7604,5.7744,5.7755,5.7706,5.7713,5.7717,5.772,0,0,0,0,0,0,0,5.677,5.68,5.7088,5.7074,5.709,5.7122,5.7152,5.7249,5.7403,5.7292,5.7302,5.7332,5.7542,5.7593,5.7611,5.7759,5.7706,5.7715,5.7722,5.7726,5.7956,5.7956,0,0,0,0,0,0,5.6739,5.6787,5.7079,5.7096,5.6938,5.7128,5.7162,5.7226,5.7402,5.743,5.7331,5.7338,5.7576,5.7599,5.7621,5.7698,5.7717,5.7727,5.7733,5.7956,5.7956,5.7956,0,0,0,0,0,0,5.673,5.6764,5.7069,5.6944,5.6986,5.7135,5.7205,5.7231,5.7283,5.7433,5.746,5.7357,5.7577,5.7606,5.7703,5.7709,5.7731,5.7741,5.7956,5.7956,5.7956,5.7854,0,0,0,0,0,0,5.6718,5.676,5.6785,5.6944,5.6992,5.7148,5.7206,5.7236,5.7301,5.7311,5.7463,5.7489,5.7579,5.7686,5.7713,5.7724,5.7749,5.7956,5.7956,5.7956,5.7857,5.785,5.7844,0,0,0,0,0,5.6703,5.6745,5.6786,5.682,5.7027,5.7148,5.7175,5.728,5.7301,5.7326,5.7422,5.7484,5.7704,5.7695,5.7726,5.774,5.7956,5.7956,5.7956,5.786,5.7852,5.7844,0,0,0,0,0,0,5.6582,5.6768,5.6815,5.691,5.7012,5.7171,5.7207,5.7268,5.7366,5.7371,5.7495,5.7528,5.7612,5.7686,5.7673,5.7804,5.7836,5.7842,5.7753,5.7746,5.7739,5.772,5.7757,0,0,0,0,0,5.6566,5.6651,5.6808,5.6876,5.6925,5.7056,5.7113,5.7185,5.7296,5.7339,5.7442,5.7545,5.7637,5.7696,5.7789,5.7868,5.7902,5.7893,5.7886,5.788,5.7884,5.7929,5.7927,5.7956,5.7956,5.7956,0,0,5.6534,5.6646,5.6692,5.6854,5.6943,5.7025,5.7092,5.7178,5.724,5.7352,5.745,5.7528,5.765,5.7738,5.7781,5.7802,5.7883,5.788,5.7874,5.7882,5.7929,5.7926,5.7923,5.7956,5.7956,5.7956,0,0,5.6518,5.6613,5.6679,5.6766,5.6898,5.6985,5.7,5.715,5.7207,5.7307,5.7392,5.7466,5.7623,5.7706,5.7769,5.7781,5.7841,5.7808,5.7774,5.7817,5.7814,5.7813,5.7816,5.7816,5.7811,5.7811,5.7811,0,5.6462,5.6593,5.6705,5.6786,5.6853,5.6959,5.7025,5.7103,5.7258,5.7301,5.7322,5.752,5.761,5.7717,5.772,5.7768,5.7787,5.7792,5.7806,5.7806,5.7806,5.7811,5.7812,5.7806,5.7806,5.7807,5.7807,0,5.6516,5.6604,5.6642,5.679,5.6862,5.6934,5.7055,5.7113,5.7178,5.7261,5.7359,5.7471,5.7588,5.7618,5.7682,5.7734,5.7743,5.7783,5.7818,5.7796,5.7803,5.7805,5.7799,5.7801,5.7802,5.7803,0,0,5.6434,5.6641,5.6653,5.6721,5.6873,5.6943,5.7018,5.7134,5.7181,5.7283,5.7348,5.7477,5.7515,5.7586,5.7659,5.7697,5.7697,5.7733,5.7737,5.7722,5.776,5.7728,5.7729,5.7738,5.7738,5.7739,5.7749,0,5.6439,5.6584,5.6685,5.6788,5.687,5.697,5.7036,5.7134,5.7213,5.7292,5.7378,5.7468,5.7511,5.7555,5.7596,5.7688,5.7707,5.7689,5.7798,5.78,5.7764,5.7733,5.7701,5.7705,5.7753,5.7753,5.7754,0,5.6467,5.6567,5.6678,5.682,5.6858,5.6916,5.7028,5.7103,5.7216,5.727,5.7348,5.7423,5.7504,5.7531,5.7644,5.7629,5.7679,5.7731,5.7734,5.7748,5.7776,5.7745,5.7709,5.7709,5.7759,5.7758,5.7758,0,5.6394,5.6557,5.6644,5.6699,5.6866,5.6904,5.6975,5.7088,5.715,5.7248,5.7289,5.7393,5.7451,5.7529,5.7629,5.7639,5.773,5.7766,5.7776,5.7773,5.7792,5.7789,5.7762,5.7823,5.7823,5.7823,5.7823,0,5.6391,5.6455,5.6614,5.6668,5.6741,5.6855,5.6924,5.7003,5.7102,5.7171,5.7263,5.7325,5.7453,5.753,5.7608,5.7688,5.7714,5.7758,5.7778,5.7751,5.7745,5.7785,5.7787,5.7823,5.7823,5.7823,5.7823,0,5.6324,5.6433,5.6535,5.6684,5.6723,5.677,5.6897,5.6952,5.7034,5.712,5.7146,5.7276,5.737,5.7478,5.7608,5.766,5.7735,5.7764,5.7697,5.7709,5.7712,5.771,5.7711,5.7716,5.7772,5.7771,5.7771,0,5.6315,5.6366,5.6521,5.6574,5.6643,5.6728,5.6792,5.6904,5.6966,5.7097,5.7135,5.7237,5.7325,5.7471,5.7575,5.7674,5.7706,5.7699,5.7722,5.7691,5.7705,5.7701,5.7706,5.7693,5.7692,5.7691,5.769,0,5.6286,5.6337,5.6427,5.6534,5.6608,5.6698,5.6791,5.6828,5.6959,5.7023,5.7122,5.719,5.7323,5.7422,5.7534,5.7604,5.7668,5.7682,5.769,5.7662,5.7621,5.7642,5.768,5.7682,5.7683,5.7683,5.7684,5.7684,5.6248,5.6298,5.6414,5.651,5.6591,5.6676,5.6734,5.6823,5.6908,5.7026,5.7086,5.7183,5.7292,5.7448,5.7517,5.7593,5.7614,5.7625,5.7628,5.7628,5.762,5.7608,5.7613,5.7614,5.7614,5.7614,5.7615,0,5.6224,5.6303,5.639,5.6517,5.6592,5.6646,5.6751,5.6809,5.6894,5.699,5.7074,5.7186,5.7282,5.7393,5.7495,5.7534,5.7566,5.7557,5.7555,5.757,5.7596,5.7579,5.753,5.753,5.753,5.753,5.753,5.753,5.622,5.6307,5.6371,5.6497,5.6576,5.6673,5.6728,5.6805,5.6882,5.7003,5.7084,5.7156,5.7257,5.7367,5.7456,5.7486,5.7519,5.7502,5.754,5.7562,5.7569,5.7576,5.756,5.7508,5.7508,5.7508,5.7508,5.7508]}]]